CW3817 Weather Reports


Display with metric or nautical units.
time (UTC)temp
F
wind
direction
speed
MPH
gust
MPH
rain 1hr
in
rain 24hr
in
rain mn
in
humidity
%
barometer
mb
20191122195245 34 178 2.0 5.0 0.00 0.00 0.00 97 991.4
20191122194756 34 186 2.0 5.0 0.00 0.00 0.00 97 991.4
20191122194321 34 174 3.0 5.0 0.00 0.00 0.00 97 991.6
20191122193303 34 165 1.0 4.0 0.00 0.00 0.00 97 991.6
20191122192822 34 165 1.0 3.0 0.00 0.00 0.00 97 991.6
20191122191248 34 175 1.0 3.0 0.00 0.00 0.00 97 991.9
20191122190739 34 175 1.0 4.0 0.00 0.00 0.00 97 991.9
20191122184249 34 177 2.0 7.0 0.00 0.00 0.00 97 992.5
20191122182726 34 164 2.0 5.0 0.00 0.00 0.00 97 993.0
20191122181723 34 194 1.0 4.0 0.00 0.00 0.00 97 993.0
20191122181233 34 184 2.0 5.0 0.00 0.00 0.00 97 993.0
20191122175716 34 159 4.0 7.0 0.00 0.00 0.00 97 993.0
20191122173248 33 161 3.0 5.0 0.00 0.00 0.00 97 993.3
20191122172719 33 175 1.0 6.0 0.00 0.00 0.00 97 993.7
20191122172238 33 161 3.0 6.0 0.00 0.00 0.00 97 993.7
20191122171333 33 133 1.0 5.0 0.00 0.00 0.00 97 994.2
20191122170817 33 166 1.0 5.0 0.00 0.00 0.00 97 994.2
20191122170338 33 152 2.0 5.0 0.00 0.00 0.00 97 994.1
20191122165828 33 170 2.0 4.0 0.00 0.00 0.00 96 994.7
20191122165336 33 213 1.0 4.0 0.00 0.00 0.00 96 994.7
20191122164314 33 148 2.0 7.0 0.00 0.00 0.00 96 994.9
20191122163803 33 181 3.0 10.0 0.00 0.00 0.00 96 994.9
20191122163319 33 172 5.0 10.0 0.00 0.00 0.00 96 994.9
20191122162828 33 177 3.0 11.0 0.00 0.00 0.00 96 995.2
20191122162322 33 164 5.0 11.0 0.00 0.00 0.00 96 995.2
20191122155319 32 159 3.0 9.0 0.00 0.00 0.00 96 996.3
20191122154820 32 178 3.0 9.0 0.00 0.00 0.00 96 996.3
20191122153740 31 141 3.0 9.0 0.00 0.00 0.00 96 996.6
20191122152822 31 177 2.0 4.0 0.00 0.00 0.00 96 997.2
20191122151816 31 177 0.0 0.0 0.00 0.00 0.00 96 997.2
20191122151259 31 177 0.0 0.0 0.00 0.00 0.00 96 997.5
20191122145305 30 177 2.0 4.0 0.00 0.00 0.00 96 998.1
20191122144802 30 177 1.0 3.0 0.00 0.00 0.00 96 998.1
20191122142805 30 177 1.0 9.0 0.00 0.00 0.00 95 999.0
20191122142239 30 177 2.0 9.0 0.00 0.00 0.00 95 999.0
20191122141240 30 177 0.0 7.0 0.00 0.00 0.00 95 999.6
20191122140226 29 177 1.0 7.0 0.00 0.00 0.00 95 1000.5
20191122134745 29 177 3.0 10.0 0.00 0.00 0.00 95 1000.4
20191122134242 29 177 4.0 9.0 0.00 0.00 0.00 95 1000.5
20191122133744 29 177 4.0 9.0 0.00 0.00 0.00 95 1000.5
20191122133208 29 177 4.0 10.0 0.00 0.00 0.00 95 1001.0
20191122132218 29 177 5.0 10.0 0.00 0.00 0.00 95 1001.0
20191122131712 29 177 4.0 9.0 0.00 0.00 0.00 95 1001.3
20191122131232 29 177 4.0 9.0 0.00 0.00 0.00 95 1001.3
20191122130320 29 177 3.0 10.0 0.00 0.00 0.00 95 1001.3
20191122124816 28 177 3.0 7.0 0.00 0.00 0.00 95 1001.6
20191122123841 28 177 3.0 6.0 0.00 0.00 0.00 95 1001.7
20191122123319 28 177 2.0 7.0 0.00 0.00 0.00 95 1001.7
20191122122826 28 177 3.0 7.0 0.00 0.00 0.00 95 1002.2
20191122121803 28 177 0.0 6.0 0.00 0.00 0.00 95 1002.2
20191122120807 28 177 1.0 5.0 0.00 0.00 0.00 95 1002.2
20191122115746 28 177 2.0 5.0 0.00 0.00 0.00 94 1002.7
20191122115248 28 177 1.0 6.0 0.00 0.00 0.00 94 1002.7
20191122114817 28 177 2.0 6.0 0.00 0.00 0.00 94 1002.7
20191122114301 28 151 1.0 5.0 0.00 0.00 0.00 94 1002.8
20191122111246 27 148 2.0 5.0 0.00 0.00 0.00 93 1003.7
20191122110742 27 158 2.0 5.0 0.00 0.00 0.00 93 1003.7
20191122105803 27 149 2.0 6.0 0.00 0.00 0.00 93 1004.2
20191122105231 27 147 3.0 6.0 0.00 0.00 0.00 93 1004.2
20191122104726 27 161 3.0 6.0 0.00 0.00 0.00 93 1004.2
20191122103727 27 160 5.0 9.0 0.00 0.00 0.00 93 1004.2
20191122103228 26 161 4.0 9.0 0.00 0.00 0.00 93 1004.3
20191122100753 26 175 0.0 7.0 0.00 0.00 0.00 93 1004.5
20191122100227 26 153 2.0 7.0 0.00 0.00 0.00 93 1004.7
20191122095728 26 147 2.0 6.0 0.00 0.00 0.00 93 1004.7
20191122095243 26 157 3.0 5.0 0.00 0.00 0.00 92 1004.7
20191122094715 26 159 1.0 6.0 0.00 0.00 0.00 93 1004.7
20191122094216 26 161 2.0 6.0 0.00 0.00 0.00 93 1004.7
20191122093720 26 161 1.0 5.0 0.00 0.00 0.00 93 1004.7
20191122093245 26 140 1.0 5.0 0.00 0.00 0.00 92 1004.7
20191122092227 26 156 3.0 7.0 0.00 0.00 0.00 92 1005.0
20191122091217 26 142 2.0 5.0 0.00 0.00 0.00 92 1005.3
20191122090255 26 148 3.0 5.0 0.00 0.00 0.00 92 1005.3
20191122085720 26 136 2.0 5.0 0.00 0.00 0.00 92 1005.7
20191122085226 26 149 0.0 5.0 0.00 0.00 0.00 92 1005.7
20191122084734 26 150 2.0 7.0 0.00 0.00 0.00 92 1005.8
20191122084211 26 134 4.0 7.0 0.00 0.00 0.00 92 1005.8
20191122083736 26 139 3.0 6.0 0.00 0.00 0.00 92 1005.8
20191122081831 26 134 2.0 5.0 0.00 0.00 0.00 92 1006.3
20191122080819 26 131 0.0 6.0 0.00 0.00 0.00 92 1006.8
20191122075808 26 150 2.0 5.0 0.00 0.00 0.00 92 1006.9
20191122075319 26 114 1.0 7.0 0.00 0.00 0.00 92 1006.9
20191122074747 27 121 2.0 7.0 0.00 0.00 0.00 92 1006.9
20191122074316 27 142 2.0 5.0 0.00 0.00 0.00 92 1007.4
20191122073755 27 143 1.0 7.0 0.00 0.00 0.00 91 1007.4
20191122073313 27 147 3.0 7.0 0.00 0.00 0.00 91 1007.4
20191122072251 27 132 0.0 3.0 0.00 0.00 0.00 91 1007.6
20191122070817 27 131 0.0 0.0 0.00 0.00 0.00 91 1008.0
20191122070314 27 131 0.0 0.0 0.00 0.00 0.00 91 1008.0
20191122065254 27 131 0.0 0.0 0.00 0.00 0.00 91 1008.2
20191122064742 27 131 0.0 0.0 0.00 0.00 0.00 91 1008.2
20191122062749 27 131 0.0 0.0 0.00 0.00 0.00 91 1008.8
20191122062235 27 131 0.0 0.0 0.00 0.00 0.00 91 1008.8
20191122061226 27 131 0.0 0.0 0.00 0.00 0.00 91 1009.0
20191122060716 27 131 0.0 0.0 0.00 0.00 0.00 91 1009.0
20191122054748 27 131 0.0 0.0 0.00 0.00 0.00 91 1009.0
20191122052735 27 131 0.0 0.0 0.00 0.00 0.00 91 1009.5
20191122052224 27 131 0.0 0.0 0.00 0.00 0.00 92 1009.5
20191122051735 27 131 0.0 0.0 0.00 0.00 0.00 92 1009.5
20191122050844 27 131 0.0 0.0 0.00 0.00 0.00 92 1009.5
20191122050335 27 131 0.0 0.0 0.00 0.00 0.00 92 1009.5
20191122045846 27 131 0.0 0.0 0.00 0.00 0.00 92 1009.9
20191122044326 27 131 0.0 0.0 0.00 0.00 0.00 92 1009.9
20191122043808 27 131 0.0 0.0 0.00 0.00 0.00 92 1009.9
20191122043255 27 131 0.0 0.0 0.00 0.00 0.00 93 1009.9
20191122042810 27 350 0.0 0.0 0.00 0.00 0.00 93 1010.1
20191122042304 27 350 0.0 0.0 0.00 0.00 0.00 93 1010.1
20191122041310 27 350 0.0 0.0 0.00 0.00 0.00 93 1010.5
20191122040821 27 350 0.0 0.0 0.00 0.00 0.00 93 1010.5
20191122034805 27 350 0.0 0.0 0.00 0.00 0.00 93 1010.9
20191122034309 27 350 0.0 0.0 0.00 0.00 0.00 93 1010.9
20191122030758 27 350 0.0 0.0 0.00 0.00 0.00 93 1011.2
20191122025252 28 350 0.0 0.0 0.00 0.00 0.00 93 1011.5
20191122024753 28 350 0.0 0.0 0.00 0.00 0.00 93 1011.5
20191122022243 28 350 0.0 0.0 0.00 0.00 0.00 93 1011.6
20191122021300 28 350 0.0 0.0 0.00 0.00 0.00 93 1011.7
20191122020743 28 350 0.0 0.0 0.00 0.00 0.00 93 1011.7
20191122020239 28 350 0.0 0.0 0.00 0.00 0.00 93 1012.2
20191122015717 28 350 0.0 0.0 0.00 0.00 0.00 93 1012.2
20191122013751 28 350 0.0 0.0 0.00 0.00 0.00 93 1012.3
20191122011729 28 350 0.0 0.0 0.00 0.00 0.00 92 1012.4
20191122011239 28 350 0.0 0.0 0.00 0.00 0.00 92 1012.4
20191122010849 28 350 0.0 0.0 0.00 0.00 0.00 92 1012.4
20191122010337 28 350 0.0 0.0 0.00 0.00 0.00 92 1012.3
20191122004812 28 350 0.0 0.0 0.00 0.00 0.00 92 1012.3
20191122004310 28 350 0.0 0.0 0.00 0.00 0.00 92 1012.6
20191122003821 28 350 0.0 0.0 0.00 0.00 0.00 92 1012.6
20191122000834 28 350 0.0 0.0 0.00 0.00 0.00 92 1012.7
20191121235258 28 350 0.0 0.0 0.00 0.00 0.00 92 1012.7
20191121234815 28 350 0.0 0.0 0.00 0.00 0.00 92 1012.7
20191121234300 28 350 0.0 0.0 0.00 0.00 0.00 92 1013.1
20191121233817 28 350 0.0 0.0 0.00 0.00 0.00 92 1013.1
20191121230801 28 0 0.0 0.0 0.00 0.00 0.00 91 1012.7
20191121223800 28 0 0.0 0.0 0.00 0.00 0.00 91 1012.8
20191121223256 28 0 0.0 0.0 0.00 0.00 0.00 91 1012.8
20191121222741 28 0 0.0 0.0 0.00 0.00 0.00 91 1012.9
20191121222249 28 0 0.0 0.0 0.00 0.00 0.00 91 1012.9
20191121221240 28 0 0.0 0.0 0.00 0.00 0.00 91 1013.2
20191121220726 28 0 0.0 0.0 0.00 0.00 0.00 91 1013.2
20191121215721 28 0 0.0 0.0 0.00 0.00 0.00 90 1013.2
20191121215241 28 0 0.0 0.0 0.00 0.00 0.00 90 1013.2
20191121214739 28 0 0.0 0.0 0.00 0.00 0.00 90 1013.2
20191121214213 28 0 0.0 0.0 0.00 0.00 0.00 90 1013.2
20191121213227 28 5 0.0 0.0 0.00 0.00 0.00 90 1013.0
20191121212246 28 5 0.0 0.0 0.00 0.00 0.00 90 1013.0
20191121211744 28 5 0.0 0.0 0.00 0.00 0.00 90 1013.0
20191121211239 28 5 0.0 0.0 0.00 0.00 0.00 90 1013.0
20191121210806 28 5 0.0 0.0 0.00 0.00 0.00
20191121210324 28 5 0.0 0.0 0.00 0.00 0.00 90 1013.0
20191121205804 28 5 0.0 0.0 0.00 0.00 0.00 89 1013.1
20191121205344 29 5 0.0 0.0 0.00 0.00 0.00 89 1013.1
20191121204818 29 347 0.0 0.0 0.00 0.00 0.00 89 1013.1
20191121202811 29 321 0.0 0.0 0.00 0.00 0.00 88 1013.3
20191121202302 29 8 0.0 0.0 0.00 0.00 0.00 88 1013.3
20191121201335 29 2 0.0 0.0 0.00 0.00 0.00 88 1013.3
20191121195748 29 280 0.0 0.0 0.00 0.00 0.00 87 1013.2